SCP
0 0 0 0 0 0 0 0 0 0 0 0 0 0 0 0 0 0 0 0 0 0 0 0 0 0 0 0 0 0 0 0 0 0 0 0 0 0 0 0 0 0 0 0
0 0 0 0 0 0 0 0 0 0 0 0 0 0 0 0 0 0 0 0 0 0 0 0 0 0 0 0 0 0 0 0 0 0 0 0 0 0 0 0 0 0 0 0
0 0 0 0 0 0 0 0 0 0 0 0 0 0 0 0 0 0 0 0 0 0 0 0 0 0 0 0 0 0 0 0 0 0 0 0 0 0 0 0 0 0 0 0
0 0 0 0 0 0 0 0 0 0 0 0 0 0 0 0 0 0 0 0 0 0 0 0 0 0 0 0 0 0 0 0 0 0 0 0 0 0 0 0 0 0 0 0
0 0 0 0 0 0 0 0 0 0 0 0 0 0 0 0 0 0 0 0 0 0 0 0 0 0 0 0 0 0 0 0 0 0 0 0 0 0 0 0 0 0 0 0
0 0 0 0 0 0 0 0 0 0 0 0 0 0 0 0 0 0 0 0 0 0 0 0 0 0 0 0 0 0 0 0 0 0 0 0 0 0 0 0 0 0 0 0
0 0 0 0 0 0 0 0 0 0 0 0 0 0 0 0 0 0 0 0 0 0 0 0 0 0 0 0 0 0 0 0 0 0 0 0 0 0 0 0 0 0 0 0
0 0 0 0 0 0 0 0 0 0 0 0 0 0 0 0 0 0 0 0 0 0 0 0 0 0 0 0 0 0 0 0 0 0 0 0 0 0 0 0 0 0 0 0
0 0 0 0 0 0 0 0 0 0 0 0 0 0 0 0 0 0 0 0 0 0 0 0 0 0 0 0 0 0 0 0 0 0 0 0 0 0 0 0 0 0 0 0
0 0 0 0 0 0 0 0 0 0 0 0 0 0 0 0 0 0 0 0 0 0 0 0 0 0 0 0 0 0 0 0 0 0 0 0 0 0 0 0 0 0 0 0
-0 -0 -0 0 0 0 0 0 0 0 0 0 0 0 0 0 0 0 0 0 0 0 0 0 0 0 0 0 0 0 0 0 0 0 0 0 0 0 0 0 0 0 0 0
-0 -0 -0 0 0 0 0 0 0 0 0 0 0 0 0 0 0 0 0 0 0 0 0 0 0 0 0 0 0 0 0 0 0 0 0 0 0 0 0 0 0 0 0 0
-0 -0 -0 0 0 0 0 0 0 0 0 0 -0 -0 -0 0 0 0 0 0 0 0 0 0 0 0 0 0 0 0 0 0 0 0 0 0 0 0 0 0 0 0 0 0
0 0 0 0 0 0 0 0 0 0 0 0 -0 -0 -0 0 0 0 0 0 0 0 0 0 0 0 0 0 0 0 0 0 0 0 0 0 0 0 0 0 0 0 0 0
0 0 0 0 0 0 0 0 0 0 0 0 -0 -0 0 0 0 0 0 0 0 0 0 0 0 0 0 0 0 0 0 0 0 0 0 0 0 0 0 0 0 0 0 0
0 0 0 0 0 0 0 0 0 0 0 0 0 0 0 0 0 0 0 0 0 0 0 0 0 0 0 0 0 0 0 0 0 0 0 0 0 0 0 0 0 0 0 0
0 0 0 0 0 -0 0 0 0 0 0 0 0 0 0 0 0 -0 -0 0 0 0 0 0 0 0 0 0 0 0 0 0 0 0 0 0 0 0 0 0 0 0 0 0
0 0 0 0 0 -0 0 0 0 0 0 0 0 0 0 0 0 -0 0 0 0 0 0 0 0 0 0 0 0 0 0 0 0 0 0 0 0 0 0 0 0 0 0 0
0 0 0 0 0 0 0 0 0 0 0 0 0 0 0 0 0 0 0 0 0 0 0 0 0 0 0 0 0 0 0 0 0 0 0 0 0 0 0 0 0 0 0 0
0 0 0 0 0 0 0 0 0 0 0 0 0 0 0 0 0 0 0 0 0 0 0 0 0 0 0 0 0 0 0 0 0 0 0 0 0 0 0 0 0 0 0 0
0 0 0 0 0 0 0 0 0 0 0 0 0 0 0 0 0 0 0 0 0 0 0 0 0 0 0 0 0 0 0 0 0 0 0 0 0 0 0 0 0 0 0 0
0 0 0 0 0 0 0 0 0 0 0 0 0 0 0 0 0 0 0 0 0 0 0 0 0 0 0 0 0 0 0 0 0 0 0 0 0 0 0 0 0 0 0 0
0 0 0 0 0 0 0 0 0 0 0 0 0 0 0 0 0 0 0 0 0 0 0 0 0 0 0 0 0 0 0 0 0 0 0 0 0 0 0 0 0 0 0 0
0 0 0 0 0 0 0 0 0 0 0 0 0 0 0 0 0 0 0 0 0 0 0 0 0 0 0 0 0 0 0 0 0 0 0 0 0 0 0 0 0 0 0 0
0 0 0 0 0 0 0 0 0 0 0 0 -0 0 0 0 0 0 0 0 0 0 0 0 0 0 0 0 0 0 0 0 0 0 0 0 0 0 0 0 0 0 0 0
0 0 0 0 0 0 0 0 0 0 0 0 0 0 0 0 0 0 0 0 0 0 0 0 0 0 0 0 0 0 0 0 -0 0 0 0 0 0 0 0 0 0 0 0
0 0 0 0 0 0 0 0 0 0 0 0 0 0 0 0 0 0 0 0 0 0 0 0 0 0 0 0 0 0 -0 -0 -0 -0 0 0 0 0 0 0 0 0 0 0
Wind_Speed
5 4 3 5 5 5 7 7 7 7 7 9 6 5 6 5 6 6 6 6 6 6 6 6 5 5 4 4 4 3 3 3 3 2 2 2 2 2 2 2 2 2 1 1
3 3 3 4 5 5 6 6 7 7 9 7 5 4 4 5 6 6 7 7 7 7 6 6 5 5 5 4 4 3 2 2 2 1 1 1 1 1 1 1 1 1 1 1
3 3 2 5 6 6 4 4 5 7 7 5 5 6 5 6 6 6 7 7 7 7 6 6 5 4 4 4 3 2 2 2 1 0 0 0 0 0 0 1 0 1 1 1
1 2 3 5 1 4 4 4 4 5 5 5 6 7 5 4 4 6 7 8 8 7 6 5 5 4 3 3 2 2 2 1 1 0 0 0 1 1 0 0 0 0 0 0
1 2 6 6 1 2 3 4 3 5 6 5 5 5 4 3 4 5 7 7 7 6 5 4 4 3 2 2 2 2 2 1 1 0 1 1 1 1 1 1 0 0 0 0
2 2 5 5 2 1 2 4 2 2 4 4 3 3 5 5 6 7 7 6 5 5 4 3 3 2 2 2 2 2 1 1 1 1 1 1 1 1 1 1 1 1 1 1
3 3 8 4 2 2 2 5 3 2 3 2 3 4 5 6 6 6 6 6 5 4 3 3 3 2 2 2 2 2 2 2 2 2 1 1 1 1 1 1 2 2 1 1
3 3 7 1 3 4 5 3 2 2 3 3 4 5 5 5 6 6 6 6 5 4 4 4 3 2 2 3 2 2 2 3 3 2 2 2 2 2 2 2 2 1 1 1
7 7 3 3 4 4 2 2 3 2 3 3 4 5 5 5 5 6 5 5 4 4 4 4 4 3 2 3 3 3 3 3 3 3 3 2 2 1 1 1 1 1 1 1
4 6 4 4 4 3 3 3 4 3 3 2 3 4 5 5 5 5 5 4 4 4 4 4 4 3 2 3 2 3 3 3 3 3 3 3 2 1 1 1 0 0 0 0
4 6 4 4 4 4 4 3 3 3 2 2 2 4 4 4 5 5 5 4 3 3 3 4 4 4 3 3 2 3 3 3 3 3 2 3 2 2 1 1 0 0 0 0
7 5 4 4 3 2 2 3 3 2 3 2 2 3 4 4 4 4 4 4 4 4 4 3 3 4 4 3 2 2 2 2 2 2 2 2 2 3 5 3 4 3 2 1
5 3 3 3 3 2 2 3 2 2 2 2 2 2 2 3 3 4 4 4 4 4 3 3 3 4 4 3 2 2 2 1 1 2 2 2 2 2 2 4 5 4 4 3
3 2 2 3 3 2 2 2 1 1 2 2 2 2 2 3 3 4 4 4 4 3 3 3 3 3 4 3 2 2 2 2 2 1 1 1 1 1 1 1 2 2 3 4
4 3 4 2 1 1 1 1 1 2 2 2 2 2 2 3 3 4 4 4 4 3 3 3 3 4 3 2 2 2 1 1 1 1 1 1 1 1 1 1 1 1 2 2
2 2 2 2 2 1 1 1 1 2 2 2 2 3 3 2 3 3 4 3 3 3 4 3 3 4 3 2 2 2 1 2 2 1 1 1 1 1 1 1 1 1 1 2
2 2 2 2 3 2 2 2 3 2 2 2 3 3 3 2 3 3 4 3 3 3 3 3 4 4 3 2 1 1 1 1 2 1 1 1 1 1 1 1 1 1 1 2
4 4 4 4 4 3 3 3 2 2 2 3 2 2 2 2 3 4 4 3 3 3 3 3 3 3 3 2 1 1 1 1 1 1 1 1 1 1 1 1 1 1 2 2
2 2 2 2 2 3 3 3 2 2 2 1 1 2 2 2 2 3 3 2 3 3 4 4 5 3 3 2 2 1 1 1 1 1 1 1 1 1 1 1 1 1 1 1
1 1 1 1 1 1 2 2 1 1 1 1 1 1 2 2 2 2 2 2 2 3 3 4 3 2 2 2 2 1 1 1 1 1 1 1 1 1 1 1 1 1 1 1
2 1 1 1 1 1 1 1 1 1 1 1 1 2 2 3 2 2 1 2 3 3 3 4 2 2 2 2 2 1 1 1 1 1 1 1 1 1 1 1 1 1 1 1
2 2 2 1 1 1 1 1 1 1 1 1 1 1 1 2 2 1 2 2 3 4 3 2 2 2 2 2 1 1 1 1 1 1 1 1 1 1 1 1 1 1 1 1
2 2 2 2 2 1 1 1 1 1 1 2 2 2 2 2 1 1 2 2 2 3 2 2 3 3 3 2 1 1 1 1 1 1 1 1 1 1 1 1 1 1 1 1
2 2 2 1 1 1 1 2 1 1 2 2 2 2 1 1 1 1 2 3 3 3 2 2 3 3 3 1 1 1 1 1 1 1 1 1 1 1 1 1 1 1 1 1
2 2 2 2 2 2 2 1 1 1 1 1 2 2 1 1 1 2 1 2 2 3 2 2 3 3 2 1 1 1 1 1 1 1 1 1 1 1 1 1 1 1 1 1
2 2 2 3 2 2 1 1 1 1 1 1 1 1 1 1 1 1 1 1 2 2 2 2 2 2 1 1 1 1 1 2 2 1 1 1 1 1 1 1 1 1 1 1
2 1 1 1 1 1 2 2 2 2 2 2 2 1 1 1 1 1 1 1 1 1 1 2 2 2 1 1 1 1 1 1 1 1 1 1 1 1 1 1 1 1 1 1
Wind_Direction
263 268 240 246 243 218 214 215 222 249 257 271 285 289 295 305 314 315 313 312 310 308 308 312 312 308 306 302 297 289 270 252 248 246 235 222 224 232 231 222 242 237 239 245
289 274 249 268 265 234 234 232 239 269 276 273 293 301 307 311 316 314 311 309 307 305 305 306 305 305 307 306 301 293 280 273 265 236 215 210 213 220 235 223 242 229 221 235
272 306 335 278 242 209 221 223 200 230 253 310 315 306 294 298 305 299 302 303 303 303 299 297 296 293 293 299 307 305 291 288 282 233 189 163 271 104 229 226 225 222 232 235
272 6 246 248 218 189 209 249 233 251 275 291 290 297 287 284 294 301 305 305 301 300 303 304 306 304 305 317 321 318 322 326 329 50 33 51 56 49 29 70 159 206 230 222
157 248 278 295 279 185 199 276 240 249 280 302 318 324 304 297 310 298 298 297 294 293 296 307 314 315 328 335 344 354 343 345 341 94 76 43 36 45 61 82 48 21 25 38
154 198 247 266 293 269 110 293 280 250 282 301 344 335 295 320 323 313 314 315 314 314 320 324 323 340 1 343 353 340 335 341 1 61 81 71 69 69 68 84 85 45 24 12
192 229 264 271 293 94 134 268 294 262 273 275 251 248 283 313 317 316 317 321 330 340 345 333 333 11 16 6 351 336 359 21 27 38 61 113 91 76 69 64 64 63 42 20
167 204 259 238 123 178 232 284 286 283 284 277 280 295 310 314 317 326 332 338 345 352 347 347 6 38 26 356 345 11 32 38 32 28 25 52 86 77 71 72 74 79 76 35
195 212 249 189 206 242 256 276 286 291 292 287 291 303 313 318 322 327 330 335 346 355 353 357 10 31 16 343 6 34 42 39 34 30 32 43 79 81 71 74 87 69 71 43
252 261 253 248 259 278 266 264 282 286 288 293 288 299 313 321 325 327 329 333 344 359 1 355 1 10 0 351 21 46 42 34 35 39 32 32 36 42 61 58 65 48 61 50
254 272 293 272 247 263 276 284 293 302 295 285 289 304 311 317 320 324 329 335 347 354 351 345 357 360 356 4 38 53 46 38 33 33 36 30 30 33 27 15 330 303 327 196
228 229 211 251 257 237 256 278 279 296 317 326 305 298 314 317 320 328 334 340 348 350 346 347 359 355 355 3 23 54 45 34 31 32 32 31 33 34 31 33 28 18 9 10
230 232 219 256 276 260 249 273 285 282 284 307 321 312 323 322 329 337 342 343 340 335 336 345 355 353 351 1 14 42 52 28 20 26 33 30 32 39 36 30 29 28 29 30
233 213 252 252 256 273 278 288 309 344 342 332 331 339 345 340 338 340 333 329 331 336 342 350 359 348 345 2 21 31 27 12 5 10 20 26 28 21 22 22 9 10 19 32
238 215 225 244 268 314 326 358 15 346 343 342 343 342 344 342 333 326 324 329 340 349 347 354 355 340 345 5 20 20 13 8 11 19 19 22 23 24 24 20 14 358 5 24
242 223 216 224 244 263 267 250 251 277 299 314 322 320 317 321 323 327 332 341 351 341 334 340 336 329 341 0 10 11 14 10 10 19 21 18 14 22 25 21 10 359 354 353
197 230 229 243 251 249 246 242 238 247 269 283 287 300 320 339 342 337 336 338 330 317 316 320 318 327 341 351 0 359 358 360 0 9 16 12 14 14 11 13 2 349 333 334
216 220 216 217 221 230 249 256 251 251 257 269 289 312 331 332 318 315 319 329 336 334 327 319 320 328 334 339 346 348 347 346 353 359 8 19 19 7 359 357 349 339 331 342
228 225 225 230 224 217 229 243 248 254 266 272 281 285 287 287 292 304 318 335 338 330 322 325 333 340 337 343 353 354 1 11 4 356 1 23 10 359 349 345 335 331 336 345
235 238 228 240 232 216 229 240 238 250 260 246 265 295 307 302 300 306 315 306 287 282 298 319 330 334 330 336 0 6 1 357 353 352 3 10 345 332 325 323 329 328 331 331
218 216 217 236 269 267 242 219 208 237 260 246 241 261 277 292 297 293 294 302 303 309 316 326 334 324 327 350 6 5 347 336 329 323 325 306 297 297 303 308 310 311 314 321
217 204 213 224 246 286 292 268 235 233 247 260 265 270 280 294 306 305 273 262 288 319 331 322 319 326 349 359 1 356 332 311 298 296 293 289 285 286 293 295 296 302 304 303
212 207 203 210 218 251 295 286 256 235 234 244 251 258 264 273 276 279 297 299 301 319 329 313 325 343 357 4 2 348 323 305 293 286 284 286 287 284 286 287 285 288 295 307
202 204 205 197 167 165 246 276 268 256 253 258 261 259 258 283 301 281 274 303 322 331 329 322 343 352 359 3 351 330 311 302 296 296 301 304 304 298 290 287 288 299 310 318
198 195 182 172 187 216 228 245 261 257 265 275 283 282 273 244 253 288 304 300 316 337 336 331 342 349 354 338 329 319 309 299 296 300 303 304 297 294 297 307 324 332 330 324
197 204 209 214 217 217 208 199 220 238 238 272 293 288 291 295 286 296 309 311 315 331 333 321 322 333 333 324 318 319 318 314 314 314 310 305 307 315 328 337 337 333 325 321
191 195 201 227 236 214 204 204 216 233 231 231 257 271 278 296 305 307 309 317 323 326 319 315 317 320 323 322 319 319 322 323 324 321 318 319 325 324 327 326 329 330 332 325